This is the latest recevied weather packets stored in our database for station/object EA3ANS-1. If no packets are shown the sender has not sent any weather packets the latest 1 day(s).
| Time | Temp. | Humidity | Pressure | Rain* | Wind** | Luminosity | Snow |
|---|---|---|---|---|---|---|---|
| 1777983765 | 21.67° C | - | 1010.4 hPa | 0 mm | 1.79 m/s, 200° | - | - |
| 1777983168 | 20° C | - | 1010.6 hPa | 0 mm | 2.24 m/s, 150° | - | - |
| 1777982559 | 20° C | - | 1010.8 hPa | 0 mm | 2.24 m/s, 201° | - | - |
| 1777981961 | 20.56° C | - | 1010.8 hPa | 0 mm | 2.24 m/s, 177° | - | - |
| 1777981362 | 20° C | - | 1010.6 hPa | 0 mm | 1.79 m/s, 135° | - | - |
| 1777980765 | 19.44° C | - | 1011 hPa | 0 mm | 2.24 m/s, 146° | - | - |
| 1777980168 | 20° C | - | 1010 hPa | 0 mm | 1.79 m/s, 118° | - | - |
| 1777979562 | 19.44° C | - | 1011.2 hPa | 0 mm | 1.34 m/s, 169° | - | - |
| 1777978965 | 19.44° C | - | 1011.3 hPa | 0 mm | 2.68 m/s, 146° | - | - |
| 1777978362 | 18.89° C | - | 1011.3 hPa | 0 mm | 0.89 m/s, 181° | - | - |
| 1777977759 | 19.44° C | - | 1011.4 hPa | 0 mm | 2.68 m/s, 150° | - | - |
| 1777977161 | 20° C | - | 1011.4 hPa | 0 mm | 0.45 m/s, 228° | - | - |
| 1777976564 | 18.89° C | - | 1011.4 hPa | 0 mm | 0.89 m/s, 115° | - | - |
| 1777975960 | 17.22° C | - | 1011.6 hPa | 0 mm | 0.89 m/s, 25° | - | - |
| 1777975360 | 16.67° C | - | 1011.4 hPa | 0 mm | 3.13 m/s, 342° | - | - |
| 1777974763 | 17.22° C | - | 1011.3 hPa | 0 mm | 2.24 m/s, 340° | - | - |
| 1777974159 | 16.67° C | - | 1011.3 hPa | 0 mm | 2.68 m/s, 305° | - | - |
| 1777973560 | 16.11° C | - | 1011.4 hPa | 0 mm | 3.58 m/s, 269° | - | - |
| 1777972959 | 15° C | - | 1011.4 hPa | 0 mm | 3.13 m/s, 277° | - | - |
| 1777972359 | 14.44° C | - | 1011.4 hPa | 0 mm | 2.68 m/s, 314° | - | - |
| 1777971759 | 13.89° C | - | 1011.3 hPa | 0 mm | 3.58 m/s, 336° | - | - |
| 1777971161 | 13.89° C | - | 1011.6 hPa | 0 mm | 2.24 m/s, 335° | - | - |
| 1777970564 | 13.89° C | - | 1011.9 hPa | 0 mm | 4.02 m/s, 359° | - | - |
| 1777969960 | 13.89° C | - | 1012 hPa | 0 mm | 4.02 m/s, 356° | - | - |
| 1777969361 | 13.89° C | - | 1012 hPa | 0 mm | 4.02 m/s, 338° | - | - |
* Rain latest hour (hover to see other rain measurements)
** Current wind speed in m/s (hover to see current wind gust speed)